KQ4UPF Weather Reports


time (UTC)temp
C
wind
direction
speed
KPH
gust
KPH
rain 1hr
cm
rain 24hr
cm
rain mn
cm
humidity
%
barometer
mb
20260906083522 23 225 1.6 6.4 0.00 0.00 0.00 85 1014.1
20260906083021 23 23 4.8 14.5 0.00 0.00 0.00 86 1014.3
20260906082517 23 297 3.2 4.8 0.00 0.00 0.00 87 1014.3
20260906082012 23 46 3.2 9.7 0.00 0.00 0.00 90 1014.2
20260906081508 23 221 1.6 1.6 0.00 0.00 0.00 94 1014.1
20260906081003 23 285 1.6 3.2 0.00 0.00 0.00 96 1014.0
20260906080500 23 270 1.6 3.2 0.00 0.00 0.00 98 1014.2
20260906075955 23 335 1.6 3.2 0.00 0.00 0.00 99 1014.1
20260906075450 23 273 1.6 3.2 0.00 0.00 0.00 99 1014.3
20260906074945 23 256 3.2 3.2 0.00 0.00 0.00 99 1014.5
20260906074445 23 303 0.0 3.2 0.00 0.00 0.00 99 1014.6
20260906073943 23 335 0.0 1.6 0.00 0.00 0.00 99 1014.6
20260906073438 23 335 1.6 1.6 0.00 0.00 0.00 99 1014.3
20260906072935 23 336 0.0 0.0 0.00 0.00 0.00 99 1014.3
20260906072430 23 336 0.0 0.0 0.00 0.00 0.00 99 1014.0
20260906071926 23 335 0.0 0.0 0.00 0.00 0.00 99 1014.1
20260906071421 23 336 0.0 1.6 0.00 0.00 0.00 99 1014.1
20260906070917 23 319 0.0 0.0 0.00 0.00 0.00 99 1014.1
20260906070413 23 324 1.6 1.6 0.00 0.00 0.00 99 1014.3
20260906065909 23 328 0.0 0.0 0.00 0.00 0.00 99 1014.0
20260906065409 23 328 0.0 0.0 0.00 0.00 0.00 99 1014.3
20260906064905 23 328 0.0 0.0 0.00 0.00 0.00 99 1014.0
20260906064401 23 328 1.6 1.6 0.00 0.00 0.00 99 1014.2
20260906063900 23 328 1.6 1.6 0.00 0.00 0.00 99 1013.9
20260906063355 23 343 0.0 0.0 0.00 0.00 0.00 99 1014.3
20260906062851 23 336 1.6 3.2 0.00 0.00 0.00 99 1014.2
20260906062350 23 265 1.6 1.6 0.00 0.00 0.00 99 1014.2
20260906061846 23 311 0.0 1.6 0.00 0.00 0.00 99 1014.2
20260906061342 23 182 1.6 1.6 0.00 0.00 0.00 99 1013.9
20260906060836 23 182 0.0 0.0 0.00 0.00 0.00 99 1013.9
20260906060334 23 182 0.0 1.6 0.00 0.00 0.00 99 1014.0
20260906055830 23 182 0.0 0.0 0.00 0.00 0.00 99 1013.6
20260906055325 23 182 0.0 1.6 0.00 0.00 0.00 99 1013.6
20260906054820 23 182 0.0 0.0 0.00 0.00 0.00 99 1013.6
20260906054315 23 182 3.2 1.6 0.00 0.00 0.00 99 1013.4
20260906053812 23 182 1.6 1.6 0.00 0.00 0.00 99 1014.0
20260906053307 23 182 0.0 0.0 0.00 0.00 0.00 99 1013.9
20260906052802 23 183 1.6 1.6 0.00 0.00 0.00 99 1013.8
20260906052259 23 182 1.6 1.6 0.00 0.00 0.00 99 1013.6
20260906051755 23 183 0.0 1.6 0.00 0.00 0.00 99 1013.6
20260906051254 23 182 1.6 1.6 0.00 0.00 0.00 99 1013.8
20260906050750 23 183 1.6 1.6 0.00 0.00 0.00 99 1013.8
20260906050245 23 193 1.6 3.2 0.00 0.00 0.00 99 1013.8
20260906045744 23 351 1.6 1.6 0.00 0.48 0.48 99 1013.9
20260906045239 23 351 0.0 0.0 0.00 0.48 0.48 99 1014.0
20260906044735 23 351 0.0 0.0 0.00 0.48 0.48 99 1014.2
20260906044229 23 351 0.0 0.0 0.00 0.48 0.48 99 1014.4
20260906043726 23 351 1.6 1.6 0.00 0.48 0.48 99 1014.3
20260906043222 23 42 1.6 3.2 0.00 0.48 0.48 99 1014.1
20260906042721 23 338 0.0 1.6 0.00 0.48 0.48 99 1014.0
20260906042220 23 338 0.0 0.0 0.00 0.48 0.48 99 1014.0
20260906041716 23 338 0.0 0.0 0.00 0.48 0.48 99 1013.9
20260906041211 23 338 0.0 0.0 0.00 0.48 0.48 99 1014.0
20260906040706 23 339 0.0 0.0 0.00 0.48 0.48 99 1014.1
20260906040202 23 339 0.0 0.0 0.00 0.48 0.48 99 1014.1
20260906035657 23 338 0.0 0.0 0.00 0.48 0.48 99 1014.0
20260906035153 23 338 0.0 0.0 0.00 0.48 0.48 99 1014.0
20260906034647 23 338 0.0 0.0 0.00 0.48 0.48 98 1014.2
20260906034142 23 338 0.0 0.0 0.00 0.48 0.48 98 1014.1
20260906033638 23 339 0.0 0.0 0.00 0.48 0.48 98 1014.1
20260906033138 23 339 0.0 0.0 0.00 0.48 0.48 98 1013.8
20260906032635 23 338 0.0 1.6 0.00 0.48 0.48 98 1014.0
20260906032134 23 338 0.0 0.0 0.00 0.48 0.48 98 1013.9
20260906031630 23 338 0.0 0.0 0.00 0.48 0.48 98 1014.2
20260906031125 23 338 0.0 0.0 0.00 0.48 0.48 98 1014.0
20260906030624 23 338 1.6 1.6 0.00 0.48 0.48 98 1013.9
20260906030120 23 311 3.2 3.2 0.00 0.48 0.48 98 1013.8
20260906025619 23 179 0.0 0.0 0.00 0.48 0.48 98 1013.8
20260906025118 23 180 1.6 1.6 0.00 0.48 0.48 98 1013.8
20260906024613 23 178 0.0 1.6 0.00 0.48 0.48 98 1013.9
20260906024108 23 178 0.0 1.6 0.00 0.48 0.48 98 1013.4
20260906023604 23 178 0.0 1.6 0.00 0.48 0.48 98 1013.5
20260906023103 23 184 3.2 3.2 0.00 0.48 0.48 98 1013.5
20260906022559 23 153 1.6 1.6 0.00 0.48 0.48 98 1013.3
20260906022054 23 153 0.0 1.6 0.00 0.48 0.48 98 1013.4
20260906021550 23 153 1.6 1.6 0.00 0.48 0.48 98 1013.5
20260906021049 23 152 1.6 1.6 0.00 0.48 0.48 98 1013.4
20260906020548 23 152 0.0 0.0 0.00 0.48 0.48 98 1013.4
20260906020048 24 152 0.0 0.0 0.00 0.48 0.48 98 1013.4
20260906015548 23 152 0.0 0.0 0.00 0.48 0.48 98 1013.4
20260906015047 23 152 1.6 3.2 0.00 0.48 0.48 98 1013.4
20260906014542 24 152 0.0 1.6 0.00 0.48 0.48 98 1013.3
20260906014038 24 152 1.6 3.2 0.00 0.48 0.48 98 1013.3
20260906013533 24 151 1.6 1.6 0.00 0.48 0.48 98 1013.3
20260906013029 23 151 3.2 1.6 0.00 0.48 0.48 98 1013.2
20260906012524 23 150 1.6 1.6 0.00 0.48 0.48 98 1013.1
20260906012023 23 221 1.6 1.6 0.00 0.48 0.48 98 1013.0
20260906011519 23 222 1.6 1.6 0.00 0.48 0.48 97 1012.7
20260906011019 23 223 0.0 0.0 0.13 0.48 0.48 97 1012.8
20260906010514 23 222 0.0 1.6 0.00 0.46 0.46 97 1012.5
20260906010011 23 223 0.0 1.6 0.00 0.46 0.46 97 1012.6
20260906005510 24 224 0.0 1.6 0.00 0.46 0.46 97 1012.3
20260906005009 24 224 1.6 3.2 0.00 0.46 0.46 97 1012.3
20260906004509 24 245 0.0 0.0 0.00 0.46 0.46 96 1012.1
20260906004004 24 245 0.0 3.2 0.00 0.46 0.46 96 1012.3
20260906003459 24 245 1.6 1.6 0.00 0.46 0.46 96 1012.1
20260906002954 24 245 0.0 0.0 0.00 0.46 0.46 96 1012.1
20260906002455 25 245 0.0 1.6 0.00 0.46 0.46 95 1012.6
20260906001950 25 214 3.2 1.6 0.30 0.46 0.46 95 1012.2
20260906001446 25 286 1.6 1.6 0.48 0.46 0.46 95 1012.6
20260906000940 25 185 0.0 1.6 0.00 0.38 0.38 95 1012.5
20260906000436 25 246 4.8 4.8 0.00 0.38 0.38 95 1012.4
20260905235930 25 166 3.2 1.6 0.00 0.38 0.38 94 1012.6
20260905235430 25 165 0.0 1.6 0.00 0.38 0.38 93 1012.3
20260905234925 25 165 0.0 1.6 0.00 0.38 0.38 93 1012.3
20260905234420 25 165 0.0 0.0 0.00 0.38 0.38 94 1012.3
20260905233915 25 165 0.0 0.0 0.00 0.38 0.38 94 1012.3
20260905233410 25 165 0.0 0.0 0.00 0.38 0.38 94 1012.4
20260905232909 25 165 0.0 1.6 0.00 0.38 0.38 94 1012.5
20260905232405 25 168 1.6 3.2 0.00 0.38 0.38 94 1012.4
20260905231901 25 195 3.2 3.2 0.00 0.38 0.38 93 1012.6
20260905231356 25 174 1.6 3.2 0.00 0.38 0.38 94 1012.4
20260905230853 25 183 1.6 1.6 0.00 0.38 0.38 95 1012.2
20260905230350 25 192 1.6 3.2 0.00 0.38 0.38 95 1012.1
20260905225849 25 217 3.2 4.8 0.00 0.38 0.38 94 1012.0
20260905225345 25 220 3.2 3.2 0.00 0.38 0.38 94 1011.9
20260905224840 25 195 3.2 3.2 0.00 0.38 0.38 95 1012.3
20260905224336 25 196 3.2 4.8 0.00 0.38 0.38 94 1012.1
20260905223836 25 197 3.2 3.2 0.00 0.38 0.38 93 1012.0
20260905223334 25 174 3.2 4.8 0.30 0.38 0.38 93 1012.0
20260905222828 26 173 1.6 4.8 1.68 0.38 0.38 90 1012.0
20260905222327 27 237 3.2 6.4 2.16 0.36 0.36 84 1012.0
20260905221823 30 204 6.4 12.9 1.07 0.18 0.18 67 1012.7
20260905221320 31 256 14.5 24.1 0.00 0.00 0.00 59 1012.8
20260905220816 32 111 9.7 16.1 0.00 0.00 0.00 60 1012.8
20260905220312 34 142 9.7 12.9 0.00 0.00 0.00 55 1012.6
20260905215811 35 213 0.0 1.6 0.00 0.00 0.00 64 1012.0
20260905215306 35 215 1.6 1.6 0.00 0.00 0.00 59 1011.6
20260905214802 35 214 1.6 1.6 0.00 0.00 0.00 59 1011.7
20260905214258 35 215 1.6 3.2 0.00 0.00 0.00 58 1011.9
20260905213753 35 215 1.6 3.2 0.00 0.00 0.00 64 1011.8
20260905213249 35 224 1.6 1.6 0.00 0.00 0.00 56 1011.9
20260905212744 35 224 3.2 3.2 0.00 0.00 0.00 57 1012.1
20260905212243 35 225 1.6 1.6 0.00 0.00 0.00 61 1011.8
20260905211743 36 215 1.6 3.2 0.00 0.00 0.00 58 1011.8
20260905211238 36 222 1.6 1.6 0.00 0.00 0.00 57 1012.1
20260905210735 36 325 1.6 4.8 0.00 0.00 0.00 52 1011.9
20260905210234 36 257 1.6 3.2 0.00 0.00 0.00 56 1012.0
20260905205733 36 261 1.6 3.2 0.00 0.00 0.00 59 1012.0
20260905205229 36 306 0.0 3.2 0.00 0.00 0.00 55 1011.9
20260905204728 36 5 3.2 4.8 0.00 0.00 0.00 52 1011.9
20260905204224 36 253 1.6 1.6 0.00 0.00 0.00 55 1012.2
20260905203723 36 15 1.6 3.2 0.00 0.00 0.00 56 1012.1
20260905203219 36 310 3.2 6.4 0.00 0.00 0.00 51 1012.2
20260905202714 36 327 3.2 4.8 0.00 0.00 0.00 53 1012.2
20260905202209 36 175 6.4 6.4 0.00 0.00 0.00 50 1012.3
20260905201705 36 241 1.6 4.8 0.00 0.00 0.00 55 1012.3
20260905201205 36 7 1.6 3.2 0.00 0.00 0.00 52 1012.5
20260905200700 36 22 3.2 4.8 0.00 0.00 0.00 47 1012.8
20260905200155 37 184 1.6 9.7 0.00 0.00 0.00 49 1012.5
20260905195654 36 199 1.6 1.6 0.00 0.00 0.00 50 1012.9
20260905195149 36 190 4.8 4.8 0.00 0.00 0.00 50 1012.9
20260905194644 36 353 0.0 1.6 0.00 0.00 0.00 55 1013.1
20260905194144 36 335 3.2 6.4 0.00 0.00 0.00 56 1013.2
20260905193639 36 318 1.6 3.2 0.00 0.00 0.00 53 1012.9
20260905193139 36 349 1.6 6.4 0.00 0.00 0.00 53 1013.1
20260905192634 36 333 1.6 1.6 0.00 0.00 0.00 51 1013.2
20260905192131 37 336 6.4 9.7 0.00 0.00 0.00 50 1013.2
20260905191630 37 279 3.2 4.8 0.00 0.00 0.00 48 1013.1
20260905191128 36 182 1.6 1.6 0.00 0.00 0.00 50 1013.4
20260905190627 36 247 1.6 1.6 0.00 0.00 0.00 56 1013.4
20260905190126 36 257 3.2 3.2 0.00 0.00 0.00 49 1013.6
20260905185626 36 293 6.4 12.9 0.00 0.00 0.00 54 1013.6
20260905185126 36 317 3.2 4.8 0.00 0.00 0.00 57 1013.5
20260905184620 36 313 3.2 4.8 0.00 0.00 0.00 55 1014.0
20260905184119 36 356 6.4 6.4 0.00 0.00 0.00 56 1013.8
20260905183618 36 192 1.6 1.6 0.00 0.00 0.00 53 1013.9
20260905183114 35 330 4.8 4.8 0.00 0.00 0.00 58 1013.9
20260905182614 35 314 3.2 4.8 0.00 0.00 0.00 56 1014.0
20260905182113 35 303 4.8 6.4 0.00 0.00 0.00 59 1014.1
20260905181608 35 309 3.2 6.4 0.00 0.00 0.00 59 1014.2
20260905181107 35 350 3.2 6.4 0.00 0.00 0.00 56 1014.4
20260905180602 36 322 0.0 4.8 0.00 0.00 0.00 52 1014.2
20260905180057 35 28 3.2 3.2 0.00 0.00 0.00 53 1014.3
20260905175556 35 234 1.6 6.4 0.00 0.00 0.00 61 1014.5
20260905175052 35 144 3.2 4.8 0.00 0.00 0.00 57 1014.4
20260905174548 35 293 0.0 3.2 0.00 0.00 0.00 54 1014.7
20260905174043 35 350 1.6 3.2 0.00 0.00 0.00 57 1014.5
20260905173540 35 306 3.2 4.8 0.00 0.00 0.00 56 1014.4
20260905173035 35 345 3.2 6.4 0.00 0.00 0.00 60 1014.8
20260905172533 35 4 3.2 3.2 0.00 0.00 0.00 56 1014.7
20260905172029 35 120 1.6 6.4 0.00 0.00 0.00 56 1014.9
20260905171525 35 318 3.2 3.2 0.00 0.00 0.00 58 1014.9
20260905171021 35 342 1.6 3.2 0.00 0.00 0.00 59 1014.9
20260905170517 35 38 3.2 3.2 0.00 0.00 0.00 58 1015.1
20260905170012 35 335 1.6 3.2 0.00 0.00 0.00 60 1015.2
20260905165507 34 322 3.2 4.8 0.00 0.00 0.00 61 1014.9
20260905165002 34 284 1.6 4.8 0.00 0.00 0.00 62 1015.2
20260905164501 33 339 3.2 4.8 0.00 0.00 0.00 68 1015.2
20260905163956 33 9 4.8 9.7 0.00 0.00 0.00 66 1015.3
20260905163453 33 312 0.0 4.8 0.00 0.00 0.00 63 1015.4
20260905162948 33 299 3.2 4.8 0.00 0.00 0.00 69 1015.4
20260905162444 33 342 4.8 6.4 0.00 0.00 0.00 66 1015.3
20260905161938 33 328 3.2 4.8 0.00 0.00 0.00 64 1015.2
20260905161438 33 304 4.8 6.4 0.00 0.00 0.00 65 1015.6
20260905160936 33 298 3.2 6.4 0.00 0.00 0.00 64 1015.6
20260905160430 33 308 4.8 4.8 0.00 0.00 0.00 63 1015.6
20260905155929 33 280 0.0 3.2 0.00 0.00 0.00 66 1015.7
20260905155424 33 336 1.6 3.2 0.00 0.00 0.00 66 1015.8
20260905154923 32 288 3.2 3.2 0.00 0.00 0.00 66 1015.8
20260905154419 32 337 3.2 3.2 0.00 0.00 0.00 68 1015.8
20260905153914 32 309 6.4 6.4 0.00 0.00 0.00 63 1015.9
20260905153411 32 316 3.2 4.8 0.00 0.00 0.00 64 1015.8
20260905152910 32 343 1.6 6.4 0.00 0.00 0.00 69 1015.9
20260905152409 32 357 3.2 4.8 0.00 0.00 0.00 71 1015.7
20260905151904 32 359 1.6 3.2 0.00 0.00 0.00 69 1016.0
20260905151400 32 69 1.6 3.2 0.00 0.00 0.00 67 1015.7
20260905150855 31 4 0.0 1.6 0.00 0.00 0.00 74 1015.8
20260905150354 31 300 0.0 1.6 0.00 0.00 0.00 70 1015.9
20260905145852 31 326 4.8 4.8 0.00 0.00 0.00 70 1015.9
20260905145346 31 3 3.2 3.2 0.00 0.00 0.00 73 1015.7
20260905144845 30 307 0.0 3.2 0.00 0.00 0.00 74 1015.8
20260905144341 30 350 1.6 4.8 0.00 0.00 0.00 74 1015.8
20260905143839 30 307 0.0 1.6 0.00 0.00 0.00 79 1016.2
20260905143334 30 342 4.8 4.8 0.00 0.00 0.00 80 1015.9
20260905142833 30 17 4.8 6.4 0.00 0.00 0.00 80 1015.9
20260905142327 29 17 3.2 3.2 0.00 0.00 0.00 81 1015.9
20260905141823 29 348 3.2 4.8 0.00 0.00 0.00 83 1016.3
20260905141324 29 357 3.2 3.2 0.00 0.00 0.00 83 1016.3
20260905140820 28 313 1.6 4.8 0.00 0.00 0.00 85 1016.2
20260905140319 28 306 4.8 6.4 0.00 0.00 0.00 84 1016.2
20260905135818 28 316 1.6 4.8 0.00 0.00 0.00 86 1016.3
20260905135314 27 310 4.8 4.8 0.00 0.00 0.00 86 1016.1
20260905134810 27 342 3.2 3.2 0.00 0.00 0.00 88 1016.3
20260905134309 27 312 6.4 4.8 0.00 0.00 0.00 86 1016.3
20260905133809 27 345 3.2 3.2 0.00 0.00 0.00 88 1016.4
20260905133304 27 353 3.2 4.8 0.00 0.00 0.00 88 1016.6
20260905132803 26 314 0.0 4.8 0.00 0.00 0.00 89 1016.5
20260905132259 26 318 3.2 3.2 0.00 0.00 0.00 89 1016.5
20260905131753 26 2 3.2 4.8 0.00 0.00 0.00 89 1016.6
20260905131249 26 298 1.6 1.6 0.00 0.00 0.00 91 1016.5
20260905130743 26 237 1.6 1.6 0.00 0.00 0.00 92 1016.6
20260905130243 26 236 1.6 1.6 0.00 0.00 0.00 91 1016.5
20260905125738 26 230 1.6 1.6 0.00 0.00 0.00 92 1016.6
20260905125233 25 230 0.0 1.6 0.00 0.00 0.00 92 1016.4
20260905124730 25 230 1.6 1.6 0.00 0.00 0.00 92 1016.5
20260905124225 25 230 0.0 0.0 0.00 0.00 0.00 95 1016.6
20260905123720 25 230 0.0 0.0 0.00 0.00 0.00 98 1016.5
20260905123217 24 229 0.0 0.0 0.00 0.00 0.00 99 1016.4
20260905122716 23 229 0.0 0.0 0.00 0.00 0.00 99 1016.5
20260905122211 23 229 0.0 1.6 0.00 0.00 0.00 99 1016.4
20260905121706 23 229 1.6 1.6 0.00 0.00 0.00 99 1016.3
20260905121202 23 229 0.0 1.6 0.00 0.00 0.00 99 1016.5
20260905120701 22 256 1.6 1.6 0.00 0.00 0.00 99 1016.2
20260905120156 22 256 0.0 1.6 0.00 0.00 0.00 99 1016.2
20260905115656 22 256 0.0 0.0 0.00 0.00 0.00 99 1016.2
20260905115151 22 256 0.0 0.0 0.00 0.00 0.00 99 1016.1
20260905114650 22 256 0.0 1.6 0.00 0.00 0.00 99 1016.1
20260905114149 22 256 0.0 0.0 0.00 0.00 0.00 99 1016.1
20260905113643 22 256 0.0 0.0 0.00 0.00 0.00 99 1016.1
20260905113139 22 256 0.0 0.0 0.00 0.00 0.00 99 1015.9
20260905112639 22 256 0.0 0.0 0.00 0.00 0.00 99 1015.9
20260905112135 22 256 0.0 0.0 0.00 0.00 0.00 99 1016.0
20260905111635 22 256 0.0 0.0 0.00 0.00 0.00 99 1015.9
20260905111134 22 256 0.0 0.0 0.00 0.00 0.00 99 1015.8
20260905110633 22 256 0.0 0.0 0.00 0.00 0.00 99 1015.6
20260905110128 22 256 0.0 0.0 0.00 0.00 0.00 99 1015.6
20260905105624 22 256 0.0 1.6 0.00 0.00 0.00 99 1015.4
20260905105122 22 256 1.6 1.6 0.00 0.00 0.00 99 1015.6
20260905104618 22 256 0.0 0.0 0.00 0.00 0.00 99 1015.4
20260905104113 22 256 0.0 0.0 0.00 0.00 0.00 99 1015.3
20260905103608 22 256 0.0 0.0 0.00 0.00 0.00 99 1015.4
20260905103104 22 256 0.0 0.0 0.00 0.00 0.00 99 1015.2
20260905102600 22 256 0.0 0.0 0.00 0.00 0.00 99 1015.2
20260905102056 22 256 0.0 0.0 0.00 0.00 0.00 99 1014.9
20260905101554 22 256 1.6 1.6 0.00 0.00 0.00 99 1015.1
20260905101053 22 256 1.6 1.6 0.00 0.00 0.00 99 1015.1
20260905100549 22 256 0.0 0.0 0.00 0.00 0.00 99 1015.1
20260905100049 22 256 0.0 0.0 0.00 0.00 0.00 99 1015.1
20260905095543 22 256 0.0 0.0 0.00 0.00 0.00 99 1015.1
20260905095039 22 256 0.0 0.0 0.00 0.00 0.00 99 1015.2
20260905094534 22 256 0.0 0.0 0.00 0.00 0.00 99 1015.3
20260905094033 22 256 0.0 0.0 0.00 0.00 0.00 99 1015.1
20260905093527 22 256 0.0 0.0 0.00 0.00 0.00 99 1015.2
20260905093024 22 256 0.0 0.0 0.00 0.00 0.00 99 1015.2
20260905092524 22 256 0.0 0.0 0.00 0.00 0.00 99 1015.1
20260905092020 22 256 0.0 0.0 0.00 0.00 0.00 99 1015.0
20260905091514 22 256 0.0 0.0 0.00 0.00 0.00 99 1015.0
20260905091014 22 256 1.6 1.6 0.00 0.00 0.00 99 1015.0
20260905090513 22 256 0.0 0.0 0.00 0.00 0.00 99 1014.9
20260905090009 22 256 0.0 0.0 0.00 0.00 0.00 99 1015.0
20260905085507 22 256 0.0 0.0 0.00 0.00 0.00 99 1014.9
20260905085003 22 256 0.0 1.6 0.00 0.00 0.00 99 1015.0
20260905084503 22 256 1.6 1.6 0.00 0.00 0.00 99 1015.0
20260905083957 22 256 0.0 0.0 0.00 0.00 0.00 99 1014.9